Location: Bosque Trail
(34.7698°N, 106.4064°W)
Time: 21:09:38
(UTC+00:00)

Daily predictions for brighter satellites

Satellite Brightness Start Highest point End
(mag) Time Altitude Azimuth Time Altitude Azimuth Time Altitude Azimuth
Cosmos 1633 4.4 12:00:37 10° NNE 12:03:55 32° E 12:07:11 10° SE
Shenzhou-11 Module 4.3 12:08:27 15° NNE 12:08:27 15° NNE 12:09:13 10° NE
Aureole 2 Rocket 3.3 12:07:07 22° N 12:08:46 43° ENE 12:11:54 10° SE
Meteor PRIRODA 3.4 12:05:23 10° N 12:09:04 82° WNW 12:10:09 44° SSW
Meteor 2-2 Rocket 4.3 12:04:17 10° S 12:10:17 83° W 12:16:21 10° N
Cosmos 1943 Rocket 2.0 12:06:04 12° NNW 12:11:07 75° WSW 12:16:36 10° SSE
Cosmos 2084 3.5 12:10:32 50° WSW 12:11:28 64° WNW 12:15:57 10° NNE
ALOS 2.4 12:07:11 10° NNE 12:11:51 73° ESE 12:16:30 10° S
SKYMED 2 4.1 12:09:58 10° SSE 12:14:13 58° ENE 12:18:30 10° N
GPS 2-05 Rocket1 4.2 12:15:29 20° SE 12:15:29 20° SE 12:17:01 10° ESE
H-2A R/B 3.0 12:13:25 10° N 12:17:37 41° WNW 12:18:02 40° W
CZ-2C R/B 3.8 12:16:01 10° NNW 12:18:38 22° NW 12:18:38 22° NW
USA 267 3.7 12:14:33 10° SSE 12:20:38 41° SW 12:23:49 25° WNW
Cosmos 1500 Rocket 3.6 12:19:15 10° NNW 12:23:34 54° W 12:27:49 10° S
NOSS 3-3 (A) 4.1 12:20:15 10° SSW 12:25:54 72° ESE 12:32:09 10° NE
NOSS 3-3 (C) 4.1 12:20:20 10° SSW 12:26:00 71° ESE 12:32:15 10° NE
FENGYUN 3A 3.6 12:28:30 10° N 12:33:55 72° WNW 12:39:19 10° SSW
Cosmos 1743 Rocket 4.1 12:32:17 10° NNW 12:36:11 34° W 12:40:06 10° SSW
Cosmos 2016 Rocket 4.4 12:30:14 10° N 12:36:29 70° E 12:42:48 10° SSE
SJ-12 4.1 12:36:02 10° N 12:40:02 49° WNW 12:44:00 10° SSW
Okean O Rocket 2.1 12:36:27 10° NNE 12:40:46 62° E 12:45:03 10° S
Cosmos 2369 Rocket 2.4 12:39:02 10° NNW 12:44:32 49° WSW 12:49:58 10° S
Cosmos 1862 3.7 12:40:36 10° N 12:44:32 64° E 12:48:27 10° SSE
Cosmos 1484 Rocket 3.9 12:43:37 10° NNW 12:46:50 24° WNW 12:49:30 13° WSW
DELTA 2 R/B (1) 3.6 12:43:58 19° W 12:48:01 68° NNW 12:53:35 10° ENE
Cosmos 1943 4.1 12:45:10 15° WSW 12:48:43 28° WNW 12:53:30 10° N
Helios 1A Rocket 4.1 12:45:06 10° NNE 12:49:06 48° E 12:53:04 10° S
USA 116 3.3 12:46:50 10° SSE 12:50:04 77° ENE 12:53:09 10° N
Cosmos 1656 Rocket 3.8 12:45:29 10° NNW 12:51:12 82° ENE 12:56:52 10° SSE
ADEOS Rocket 3.8 12:45:56 10° SSE 12:51:55 59° ENE 12:58:35 10° N
Cosmos 921 Rocket 3.2 12:49:42 10° NNW 12:53:56 49° W 12:58:04 10° S
Cosmos 1140 Rocket 4.4 12:52:37 10° SW 12:57:05 28° WNW 13:01:34 10° N
Cosmos 1954 Rocket 4.4 12:53:50 10° SW 12:58:49 40° WNW 13:03:50 10° N
CZ-4B DEB 4.3 12:54:49 10° N 13:00:07 53° WNW 13:05:24 10° SSW
Cosmos 2221 4.4 13:01:16 12° WNW 13:01:16 12° WNW 13:02:16 10° NW
Cosmos 2263 4.4 12:56:36 10° NNW 13:02:02 49° WSW 13:07:23 10° S
COSMO-SKYMED 1 3.1 12:58:18 10° SSW 13:02:17 35° W 13:06:17 10° NNW
Cosmos 1850 Rocket 4.1 12:58:56 10° SSW 13:04:15 85° ESE 13:09:33 10° NNE
Cosmos 2173 Rocket 4.3 12:58:50 10° NNW 13:04:42 44° W 13:10:29 10° SSW
CZ-4B R/B 3.1 13:00:53 10° N 13:06:11 76° WNW 13:11:26 10° SSW
Aurora 2 Rocket 4.2 13:02:34 10° WSW 13:06:27 22° SSW 13:09:33 10° SE
IUS-17 SRM-1 4.4 13:07:14 10° WSW 13:09:32 28° S 13:14:53 10° ESE
Cosmos 1633 Rocket 3.2 13:05:30 10° N 13:09:53 82° E 13:14:17 10° S
Iridium 51 4.2 13:07:23 10° S 13:11:26 89° W 13:15:10 10° N
Cosmos 1666 Rocket 3.5 13:09:17 10° NNW 13:13:41 71° W 13:18:02 10° S
Cosmos 1933 3.9 13:09:48 10° S 13:13:51 65° E 13:17:55 10° NNE
Atlas Centaur 2 3.7 13:12:22 10° WSW 13:20:33 54° SSE 13:28:34 10° E
